Tracking 19176 objects as of 27-May-2018
HD Live streaming from Space Station
objects crossing your sky now

COSMOS 1437

Track COSMOS 1437 now!
10-day predictions
COSMOS 1437 is classified as:


NORAD ID: 13770
Int'l Code: 1983-003A
Perigee: 402.6 km
Apogee: 412.3 km
Inclination: 81.2 °
Period: 92.6 minutes
Semi major axis: 6778 km
RCS: 7.8902 m2 (large)
Launch date: January 20, 1983
Source: Commonwealth of Independent States (former USSR) (CIS)
Launch site: PLESETSK MISSILE AND SPACE COMPLEX (PKMTR)
aabbcc
Your satellite tracking list
Your tracking list is empty




NASA's NSSDC Master Catalog

Two Line Element Set (TLE):
1 13770U 83003A   18147.50109875  .00004746  00000-0  68592-4 0  9993
2 13770  81.1569  84.2650 0007148 114.5768 245.6227 15.55636467939981
Source of the keplerian elements: AFSPC